SWA4592 KTUL-KDAL

Flight info

Callsign SWA4592
Flight time N/A
Altitude 28000
Route DCT PEJAY DCT AXXEE HIBIL3
Aircraft B38M/M-SDE1FGHILORVWXY/HB1

Departure

Time 2026-04-21 22:41
Airport Tulsa International Airport (KTUL)

Arrival

Time N/A
Airport Dallas Love Field (KDAL)
Time Latitude Longitude Altitude Speed Heading
2026-04-21 22:07 36.19196 -95.89028 659 ft 0 kts 129°
2026-04-21 22:23 36.19197 -95.89030 659 ft 0 kts 129°
2026-04-21 22:24 36.19198 -95.89031 659 ft 2 kts 129°
2026-04-21 22:24 36.19207 -95.89051 659 ft 3 kts 100°
2026-04-21 22:24 36.19207 -95.89074 660 ft 3 kts 69°
2026-04-21 22:24 36.19197 -95.89093 659 ft 3 kts 38°
2026-04-21 22:25 36.19196 -95.89095 660 ft 0 kts 34°
2026-04-21 22:36 36.19289 -95.89016 658 ft 22 kts 34°
2026-04-21 22:36 36.19390 -95.88918 659 ft 12 kts 48°
2026-04-21 22:36 36.19403 -95.88895 659 ft 0 kts 54°
2026-04-21 22:37 36.19420 -95.88876 659 ft 13 kts 43°
2026-04-21 22:37 36.19490 -95.88738 656 ft 21 kts 37°
2026-04-21 22:38 36.19612 -95.88643 659 ft 21 kts 22°
2026-04-21 22:38 36.19762 -95.88579 657 ft 25 kts 19°
2026-04-21 22:38 36.19939 -95.88505 652 ft 29 kts 18°
2026-04-21 22:38 36.20077 -95.88449 648 ft 33 kts 19°
2026-04-21 22:39 36.20376 -95.88369 641 ft 30 kts
2026-04-21 22:39 36.20585 -95.88356 642 ft 29 kts
2026-04-21 22:39 36.20720 -95.88347 642 ft 28 kts
2026-04-21 22:39 36.20907 -95.88335 642 ft 26 kts
2026-04-21 22:40 36.21086 -95.88323 642 ft 25 kts
2026-04-21 22:40 36.21249 -95.88312 639 ft 23 kts
2026-04-21 22:40 36.21386 -95.88250 638 ft 17 kts 72°
2026-04-21 22:40 36.21332 -95.88138 639 ft 17 kts 172°
2026-04-21 22:41 36.21053 -95.88157 639 ft 86 kts 183°
2026-04-21 22:41 36.20144 -95.88217 695 ft 169 kts 183°
2026-04-21 22:41 36.18999 -95.88331 2187 ft 152 kts 184°
2026-04-21 22:41 36.18096 -95.88365 3723 ft 113 kts 183°
2026-04-21 22:42 36.17102 -95.88432 3721 ft 182 kts 184°
2026-04-21 22:42 36.15866 -95.88531 5059 ft 161 kts 190°
2026-04-21 22:42 36.14834 -95.88767 6377 ft 161 kts 193°
2026-04-21 22:42 36.13615 -95.88948 6975 ft 192 kts 188°
2026-04-21 22:43 36.12227 -95.89088 7680 ft 208 kts 185°
2026-04-21 22:43 36.10739 -95.89170 8463 ft 219 kts 185°
2026-04-21 22:43 36.09186 -95.89269 9305 ft 228 kts 185°
2026-04-21 22:43 36.07486 -95.89380 9546 ft 264 kts 184°
2026-04-21 22:44 36.05556 -95.89079 9645 ft 301 kts 162°
2026-04-21 22:44 36.03607 -95.87880 10119 ft 314 kts 153°
2026-04-21 22:44 36.01749 -95.86638 11463 ft 291 kts 153°
2026-04-21 22:44 35.99882 -95.85955 12581 ft 283 kts 179°
2026-04-21 22:45 35.97884 -95.86452 12592 ft 311 kts 205°
2026-04-21 22:45 35.95854 -95.87709 12460 ft 339 kts 206°
2026-04-21 22:45 35.93625 -95.88795 12368 ft 360 kts 198°
2026-04-21 22:45 35.91104 -95.89583 12304 ft 375 kts 192°
2026-04-21 22:46 35.88487 -95.90101 12279 ft 386 kts 188°
2026-04-21 22:46 35.85788 -95.90462 12255 ft 393 kts 186°
2026-04-21 22:46 35.83102 -95.90728 12561 ft 390 kts 185°